Regional Weather Roundup
Issued by NWS

Home | Current Version | Previous Version | Text Only | Print | Product List | Glossary Off
Versions: 1 2 3 4 5 6 7 8 9 10 11 12 13 14 15 16 17 18 19 20 21 22 23 24 25 26 27 28 29 30 31 32 33 34 35 36 37 38 39 40 41 42 43 44 45 46 47 48 49 50

000
ASUS43 KMPX 100401
RWRMN
WEATHER ROUNDUP FOR MINNESOTA
NATIONAL WEATHER SERVICE TWIN CITIES/CHANHASSEN MN
1000 PM CST FRI DEC 09 2016


NOTE: "FAIR" INDICATES FEW OR NO CLOUDS BELOW 12,000 FEET WITH NO
SIGNIFICANT WEATHER AND/OR OBSTRUCTIONS TO VISIBILITY. N/A MEANS
CURRENT SKY AND/OR WEATHER CONDITIONS ARE NOT AVAILABLE.

MNZ060>063-068>070-100500-
   Twin Cities Metro

CITY           SKY/WX    TMP DP  RH WIND       PRES   REMARKS
TWIN CITIES    MOCLDY    11   3  70 W9        30.50R WCI  -2
ST PAUL        LGT SNOW  13   6  74 W10       30.51S WCI   0
CRYSTAL        CLOUDY    11   1  64 NW9       30.49R WCI  -2
BLAINE         PTCLDY    10   3  72 W7        30.48S WCI   0
LAKEVILLE      MOCLDY     7   3  85 W6        30.49S WCI  -3
EDEN PRAIRIE   PTCLDY    10   3  73 W8        30.49S WCI  -2
SOUTH ST PAUL  MOCLDY    13   4  68 W9        30.49S WCI   1
LAKE ELMO      CLOUDY    14   7  73 NW7       30.49S WCI   4
$$
MNZ001>005-007-008-013>017-022>024-027-028-100500-
   Northwest Minnesota

CITY           SKY/WX    TMP DP  RH WIND       PRES   REMARKS
BEMIDJI        FLURRIES   0  -5  80 W7        30.45S WCI -13
HALLOCK        CLOUDY    -2  -8  78 NW9       30.54S WCI -18
ROSEAU         MOCLDY    -4  -8  84 W7        30.49S WCI -18
WARROAD        PTCLDY    -6  -9  84 SW5       30.48S WCI -17
THIEF RVR FALL FLURRIES -10 -14  82 W5        30.52R WCI -22
CROOKSTON      CLOUDY    -9 -15  77 W3        30.56S
FOSSTON        CLOUDY    -6 -11  77 CALM      30.49S
DETROIT LAKES  MOCLDY    -2  -6  84 NW5       30.49S WCI -12
MOORHEAD       CLOUDY    -4  -9  77 NW10      30.56S WCI -21
PARK RAPIDS    CLOUDY     2  -6  69 W9        30.45R WCI -13
$$
MNZ006-009>011-018-025>026-100500-
   North Central Minnesota

CITY           SKY/WX    TMP DP  RH WIND       PRES   REMARKS
BAUDETTE       CLOUDY    -1  -8  72 W10       30.44S WCI -17
FLAG ISLAND    CLOUDY    -2  -6  84 W9        30.45S WCI -18
INTL FALLS     PTCLDY    -4  -9  79 W6        30.43S WCI -16
WASKISH        CLOUDY     0  -6  78 NW9       30.46S WCI -16
BIG FORK       FLURRIES   3  -2  78 CALM      30.43S
LONGVILLE      CLOUDY     3  -2  78 W6        30.44S WCI  -8
GRAND RAPIDS   FLURRIES   5  -1  76 NW9       30.44S WCI  -9
CRANE LAKE     CLOUDY     1  -4  78 W5        30.44S WCI  -8
ORR            CLOUDY    -2  -8  78 CALM      30.40S
COOK           CLOUDY     1  -2  85 NW5       30.42S WCI  -8
$$
MNZ012-019>021-037-100500-
   Northeast Minnesota

CITY           SKY/WX    TMP DP  RH WIND       PRES   REMARKS
DULUTH         CLOUDY     6  -3  66 NW8       30.39F WCI  -7
ELY            CLOUDY     3  -4  72 W7        30.38S WCI  -9
HIBBING        MIX PCPN   3  -2  79 NW9       30.41S WCI -12
EVELETH        MOCLDY     5  -3  71 NW7       30.41S WCI  -7
DULUTH HARBOR  CLOUDY    12   1  62 NW13      30.48S WCI  -3
TWO HARBORS    CLEAR      0  -6  78 CALM      30.40S
SILVER BAY     CLOUDY     7  -2  66 NW5       30.39F WCI  -2
GRAND MARAIS     N/A     11   3  70 VRB6      30.40F WCI   1
G MARAIS ARPRT CLOUDY     3  -4  72 NW5       30.29F WCI  -6
$$
MNZ029>031-032-039>041-046>048-054>057-064-100500-
   West Central Minnesota

CITY           SKY/WX    TMP DP  RH WIND       PRES   REMARKS
FERGUS FALLS   CLOUDY    -2  -6  84 NW8       30.57S WCI -17
WHEATON        CLEAR      1  -2  85 NW8       30.57S WCI -12
MORRIS         CLEAR     -2  -6  84 NW6       30.52R WCI -14
ALEXANDRIA     CLEAR     -2  -6  83 NW8       30.48S WCI -17
ELBOW LAKE     FAIR      -3  -6  87 NW6       30.52R WCI -15
WADENA         FLURRIES  -6  -8  92 W3        30.47S
GLENWOOD       CLEAR     -2  -6  84 W7        30.49S WCI -16
APPLETON       MOCLDY     3   0  85 N5        30.55R WCI  -6
BENSON         PTCLDY     0  -6  78 N6        30.53R WCI -12
ORTONVILLE     CLOUDY     3  -2  78 CALM      30.54S
MADISON        CLOUDY     9   1  72 NW9       30.54S WCI  -5
WILLMAR        FAIR       5   0  78 CALM      30.52S
$$
MNZ033>034-036-042>043-049>051-058-059-100500-
   Central Minnesota

CITY           SKY/WX    TMP DP  RH WIND       PRES   REMARKS
ST CLOUD       PTCLDY     4  -1  80 W10       30.49S WCI -11
PAYNESVILLE    CLEAR      2  -2  83 W6        30.50S WCI  -9
AITKIN         MIX PCPN  10   1  67 W5        30.43S WCI   2
PINE RIVER     CLOUDY     5  -2  72 W5        30.47S WCI  -4
BRAINERD       CLOUDY     7  -1  70 NW7       30.45S WCI  -5
LONG PRAIRIE   FAIR       0  -4  85 W7        30.47F WCI -13
LITTLE FALLS   CLOUDY     5  -2  72 NW9       30.48S WCI  -9
LITCHFIELD     CLEAR      5   0  78 NW8       30.51R WCI  -8
BUFFALO        PTCLDY     8   1  74 W9        30.51S WCI  -6
MAPLE LAKE     PTCLDY     7   2  81 W6        30.51R WCI  -3
HUTCHINSON     PTCLDY     7   1  78 NW8       30.51S WCI  -6
$$
MNZ037-044-045-052-053-100500-
   East Central Minnesota

CITY           SKY/WX    TMP DP  RH WIND       PRES   REMARKS
PRINCETON      CLOUDY    10   3  72 W10       30.47S WCI  -3
MORA           CLOUDY    12   3  67 W7        30.47S WCI   2
CAMBRIDGE      FLURRIES  12   3  67 W6        30.46S WCI   3
RUSH CITY      CLOUDY    12   3  67 NW5       30.47S WCI   4
MOOSE LAKE     CLOUDY    10   1  67 N5        30.43S WCI   2
HINCKLEY       CLOUDY    12   5  73 CALM      30.45S
CLOQUET        CLOUDY     7   0  72 W3        30.41S
MCGREGOR       CLOUDY    10   3  72 NW3       30.44R
$$
MNZ071>073-080-081-089-090-097-098-100500-
   Southwest Minnesota

CITY           SKY/WX    TMP DP  RH WIND       PRES   REMARKS
MONTEVIDEO     CLOUDY     5   0  78 N8        30.55S WCI  -8
GRANITE FALLS  CLOUDY     9   3  78 NW7       30.55S WCI  -3
CANBY          CLOUDY     7   2  78 CALM      30.54S
MARSHALL       FLURRIES   6   0  76 N7        30.53S WCI  -6
REDWOOD FALLS  CLOUDY     7   0  73 NW6       30.53S WCI  -3
OLIVIA         CLEAR      9   1  72 NW8       30.52R WCI  -4
PIPESTONE      FLURRIES   9   5  85 NE6       30.46S WCI  -1
WINDOM         LGT SNOW   9   5  85 MISG      30.49R
WORTHINGTON    LGT SNOW  12   9  85 N7        30.47S FOG     WCI   2
JACKSON        FLURRIES  12   9  85 N5        30.48S WCI   4
TRACY          LGT SNOW   8   4  84 NW7       30.51R WCI  -3
SLAYTON        LGT SNOW   6   3  86 N7        30.48R WCI  -5
$$
MNZ065>067-074>077-082>085-091>093-100500-
   South Central Minnesota

CITY           SKY/WX    TMP DP  RH WIND       PRES   REMARKS
MANKATO        FLURRIES   9   6  88 NW10      30.51S WCI  -5
NEW ULM        CLOUDY     9   3  78 NW10      30.52R WCI  -6
ST JAMES       CLOUDY    10   7  85 NW10      30.52S WCI  -3
FAIRMONT       FLURRIES  12   8  84 NW7       30.50S WCI   1
GLENCOE        CLOUDY     9   5  84 W8        30.50S WCI  -4
FARIBAULT      MOCLDY     9   3  78 W8        30.50R WCI  -4
OWATONNA       LGT SNOW  10   7  85 NW7       30.48S WCI   0
WASECA         LGT SNOW  12   9  85 W6        30.50S WCI   3
ALBERT LEA     CLOUDY    18  12  79 NW3       30.47S
$$
MNZ078>079-086>088-094>096-100500-
   Southeast Minnesota

CITY           SKY/WX    TMP DP  RH WIND       PRES   REMARKS
ROCHESTER      CLOUDY    12   8  84 W10       30.45S WCI  -1
RED WING       MOCLDY    12   7  79 W9        30.49S WCI   0
STANTON        PTCLDY    10   5  80 W6        30.49S WCI   0
DODGE CENTER   FLURRIES  10   7  85 W7        30.46R WCI   0
WINONA           N/A     18  12  79 NW6       30.50S WCI   9
AUSTIN         LGT SNOW  14  10  85 NW8       30.47S WCI   3
PRESTON        CLOUDY    13  10  87 W6        30.46S FOG     WCI   4
$$
ABBREVIATIONS USED IN REMARKS
   TC - TEMPERATURES IN CELSIUS
  WCI - WIND CHILL INDEX
   HX - HEAT INDEX
  VSB - VISIBILITY
$$




USA.gov is the U.S. government's official web portal to all federal, state and local government web resources and services.